Location: Warszawa
(52.2322°N, 21.0083°E)
Time: 23:41:19
(UTC+01:00)

ISS - Visible Passes

Search period start: 21 January 2018 00:00
Search period end: 31 January 2018 00:00
Orbit: 402 x 407 km, 51.6° (Epoch: 22 January)

Date Brightness Start Highest point End Pass type
(mag) Time Alt. Az. Time Alt. Az. Time Alt. Az.
26 Jan -0.9 18:56:03 10° SSW 18:56:24 12° SSW 18:56:24 12° SSW visible
27 Jan -2.0 18:04:20 10° SSW 18:06:25 19° SSE 18:06:25 19° SSE visible
28 Jan -1.5 17:13:09 10° SSE 17:14:35 12° SE 17:16:01 10° ESE visible
28 Jan -2.0 18:47:19 10° SW 18:49:02 26° SW 18:49:02 26° SW visible
29 Jan -2.7 17:55:15 10° SW 17:58:10 31° SSE 17:58:54 28° SE visible
29 Jan -0.6 19:31:08 10° WSW 19:31:34 13° WSW 19:31:34 13° WSW visible
30 Jan -2.1 17:03:23 10° SSW 17:05:57 21° SSE 17:08:31 10° E visible
30 Jan -3.1 18:38:48 10° WSW 18:41:23 48° SW 18:41:23 48° SW visible
